Location: Tamazert
(32.6352°N, 5.2072°W)
Time: 05:27:46
(UTC+00:00)

ADEOS II - Pass Details

Date: 22 May 2022
Orbit: 798 x 801 km, 98.6° (Epoch: 24 June)

Event Time Altitude Azimuth Distance (km) Brightness Sun altitude
Rises 01:49:06 0° 22° (NNE) 3,308 6.4 -32.7°
Reaches altitude 10° 01:51:35 10° 29° (NNE) 2,375 5.4 -32.4°
Enters shadow 01:55:46 39° 78° (ENE) 1,189 3.1 -32.0°
